Warning: Javascript must be enabled to use all the features on this page!


Page Loading - Please Wait...

Click to hideNews Bulletins

Peak Streamflow for the Nation

USGS 01057000 Little Androscoggin River near South Paris, Maine

Oxford County, Maine
Hydrologic Unit Code 01040002
Latitude  44°18'14", Longitude  70°32'23" NAD83
Drainage area 73.5  square miles
Contributing drainage area 73.5  square miles
Gage datum 447.00 feet above NGVD29
Output formats
Table
Graph
Tab-separated file
peakfq (watstore) format
Reselect output format
Water
Year
Date Gage
Height
(feet)
Stream-
flow
(cfs)
1914 1914-04-21   2,6502
1915 1915-07-09   3,0702
1916 1916-05-18   2,4402
1917 1917-06-12   2,1002
1918 1918-09-26   2,0202
1919 1919-03-29   1,2702
1920 1920-04-14   3,8802
1921 1920-12-15   2,9302
1922 1922-04-12   2,3402
1923 1923-04-29   2,9302
1932 1932-09-17   2,3202
1933 1933-04-18   3,0702
1934 1934-04-13   3,2602
1935 1935-04-20   8882
1936 1936-03-19   6,8102
1937 1937-05-20   1,8202
1938 1938-01-25   3,3402
1939 1939-04-24   1,8602
1940 1940-04-13   2,1302
1941 1941-02-08   6972
1942 1942-06-15   3,4002
1943 1943-05-27   9862
1944 1943-11-09   2,5602
1945 1945-03-30   1,4902
1946 1946-08-27   1,2302
1947 1946-10-01   1,9902
1948 1948-05-18   1,4302
1949 1949-01-01   1,7002
1950 1950-04-21   2,8902
1951 1951-04-03   3,5702
1952 1952-06-02   2,0702
1953 1953-03-27   7,8102
1954 1954-09-12   3,1402
1955 1954-12-19   1,9002
1956 1956-04-17   1,1902
1957 1956-11-22   4262
1958 1957-12-21   2,0402
1959 1959-04-03   2,1502
1960 1960-04-05   2,0602
1961 1961-04-23   1,0502
1962 1962-04-09   1,2902
1963 1962-10-07   1,9602
1964 1963-11-08   2,9902
1965 1965-04-16   7672
1966 1966-03-26   1,4302
1967 1966-11-03   2,8802
1968 1968-04-25   3,0802
1969 1969-04-23   2,4202
1970 1970-02-11   2,7202
1971 1971-05-04   2,0602
1972 1972-05-04   1,2202
1973 1973-07-01   2,1002
1974 1973-12-21   3,3102
1975 1974-12-09   1,3802
1976 1976-04-02   2,8102
1977 1977-03-15   2,7302
1978 1978-01-10   2,2502
1979 1979-04-28   2,8902
1980 1980-04-10   3,1602
1981 1981-08-16   1,3202
1982 1982-04-18   1,3502
1983 1983-03-20   2,6502
1984 1984-04-06 10.476 5,890
1985 1985-03-13 5.65 934
1986 1986-01-27 9.76 4,790
1987 1987-04-01 12.22 9,340
1988 1988-04-29 6.10 1,180
1989 1989-05-12 9.91 5,010
1990 1990-03-18 6.23 1,250
1991 1990-12-24 6.77 1,550
1992 1992-03-29 7.80 2,440
1993 1993-04-11 8.38 3,030
1994 1994-04-17 7.18 1,940
1995 1995-03-22 5.04 627
1996 1996-04-17 8.63 3,220
1997 1996-10-22 7.73 2,310
1998 1998-06-14 8.85 3,500
1999 1999-09-17 7.89 2,460
2000 2000-03-28 8.01 2,580
2001 2000-12-18 7.04 1,730
2002 2002-04-14 7.06 1,740
2003 2003-03-30 5.87 1,020
2004 2003-12-18 8.82 3,470
2005 2005-04-03 9.81 4,750
2006 2005-10-26 7.15 1,870
2007 2007-04-17 8.27 2,880
2008 2008-04-30 7.91 2,530
2009 2008-11-26 8.212 2,820
2010 2010-03-24 7.58 2,230
2011 2010-12-13 8.96 3,240
2012 2012-06-03 10.12 4,360
2013 2013-08-10 6.83 1,460
2014 2014-04-16 9.08 3,370
2015 2015-04-21 7.52 1,920
2016 2016-01-11 7.15 1,650
2017 2017-04-12 7.29 1,750
2018 2017-10-30 7.87 2,220
2019 2019-04-21 7.52 1,930
2020 2020-04-14 8.13 2,450
2021 2020-12-26 8.09 2,420
2022 2022-03-20 6.07 1,000
?
  Peak Gage-Height Qualification Codes.
?
  Peak Streamflow Qualification Codes.